Voltar ao catálogo

COSMOS 2251 DEB

AtivoLEO
NORAD 34968·DEBRIS·🇷🇺 Russia

Lançado Jun 16, 1993 de Plesetsk Cosmodrome

Loading…

Próximas Passagens (próximas 24 horas)

TLE

AtualizadoSource: Space-Track

Época: Sep 14, 2026, 12:04 UTC

1 34968U 93036AEX 26257.50343870  .00000472  00000-0  10024-3 0  9996
2 34968  74.0367  81.2194 0085713 132.8500 227.9909 14.59749434925012

Acompanhe COSMOS 2251 DEB em tempo real com AllMySat

Download on the App Store